Erzurum, Turkey

7:56 AM +03 on January 21, 2018 (GMT +0300)
Erzurum

Weather History for LTCE - October, 2012

Change the Weather History Date:

Thursday, October 11, 2012

  Actual Average Record
Temperature  
Mean Temperature 54 °F -  
Max Temperature 65 °F 53 °F 77 °F (2011)
Min Temperature 44 °F 33 °F 21 °F (1998)
Degree Days  
Heating Degree Days 10    
Growing Degree Days 4 (Base 50)    
Moisture  
Dew Point 44 °F    
Average Humidity 76    
Maximum Humidity 100    
Minimum Humidity 33    
Precipitation  
Precipitation 0.02 in 0.06 in - ()
Sea Level Pressure  
Sea Level Pressure 30.06 in    
Wind  
Wind Speed 6 mph ()    
Max Wind Speed 15 mph    
Max Gust Speed 39 mph    
Visibility 6.6 miles    
Events Rain , Thunderstorm    
Averages and records for this station are not official NWS values.
T = Trace of Precipitation, MM = Missing Value Source: Averaged Metar Reports

Daily Weather History Graph

Daily Weather History Graph

Search for Another Location

Airport or City:

Trip Planner

Search our weather history database for the weather conditions in past years. The results will help you decide how hot, cold, wet, or windy it might be!

Date:

Astronomy

Oct. 11, 2012 Rise Set
Actual Time 6:21 AM EEST 5:41 PM EEST
Civil Twilight 5:54 AM EEST 6:08 PM EEST
Nautical Twilight 5:23 AM EEST 6:40 PM EEST
Astronomical Twilight 4:51 AM EEST 7:11 PM EEST
Moon 1:37 AM EEST (10/11) 3:05 PM EEST (10/11)
Length of Visible Light 12h 14m
Length of Day
11h 19m
Waning Crescent, 21% of the Moon is Illuminated
Oct 11
Waning Crescent
Oct 15
New
Oct 22
First Quarter
Oct 29
Full
Nov 7
Last Quarter

Hourly Weather History & Observations

Time (EEST) Temp. Windchill Dew Point Humidity Pressure Visibility Wind Dir Wind Speed Gust Speed Precip Events Conditions
12:20 AM 46.4 °F 44.3 °F 46.4 °F 100% 30.15 in 6.2 mi NW 4.6 mph - N/A Rain Light Rain Showers
12:50 AM 46.4 °F 44.3 °F 46.4 °F 100% 30.15 in 6.2 mi NNE 4.6 mph - N/A Rain Light Rain Showers
1:20 AM 46.4 °F 44.3 °F 44.6 °F 93% 30.15 in 6.2 mi NE 4.6 mph - N/A Rain Light Rain Showers
1:50 AM 46.4 °F 45.2 °F 44.6 °F 93% 30.15 in 6.2 mi ENE 3.5 mph - N/A Rain Light Rain Showers
2:20 AM 44.6 °F 43.1 °F 44.6 °F 100% 30.15 in 6.2 mi East 3.5 mph - N/A   Mostly Cloudy
3:00 AM 45 °F - 44 °F 92%  in 12 mi ESE 3.5 mph - - Rain Light Rain Showers
3:20 AM 44.6 °F 43.1 °F 42.8 °F 93% 30.12 in 6.2 mi ESE 3.5 mph - N/A   Mostly Cloudy
3:50 AM 44.6 °F - 44.6 °F 100% 30.12 in 6.2 mi Variable 1.2 mph - N/A   Mostly Cloudy
4:50 AM 44.6 °F 43.1 °F 42.8 °F 93% 30.12 in 6.2 mi Variable 3.5 mph - N/A   Mostly Cloudy
5:20 AM 44.6 °F - 44.6 °F 100% 30.12 in 6.2 mi Variable 2.3 mph - N/A   Mostly Cloudy
5:50 AM 44.6 °F - 44.6 °F 100% 30.12 in 6.2 mi Variable 1.2 mph - N/A   Mostly Cloudy
6:20 AM 46.4 °F 44.3 °F 44.6 °F 93% 30.12 in 6.2 mi ENE 4.6 mph - N/A   Mostly Cloudy
6:50 AM 44.6 °F 42.2 °F 44.6 °F 100% 30.12 in 6.2 mi East 4.6 mph - N/A   Mostly Cloudy
7:20 AM 46.4 °F 41.9 °F 44.6 °F 93% 30.12 in 6.2 mi ENE 9.2 mph - N/A   Mostly Cloudy
7:50 AM 46.4 °F - 44.6 °F 93% 30.12 in 6.2 mi Variable 2.3 mph - N/A   Mostly Cloudy
8:20 AM 46.4 °F 44.3 °F 44.6 °F 93% 30.12 in 6.2 mi Variable 4.6 mph - N/A   Mostly Cloudy
8:50 AM 46.4 °F 45.2 °F 46.4 °F 100% 30.12 in 6.2 mi Variable 3.5 mph - N/A Rain Light Rain Showers
9:20 AM 48.2 °F - 46.4 °F 93% 30.12 in 6.2 mi NNE 10.4 mph - N/A   Mostly Cloudy
9:50 AM 51.8 °F - 46.4 °F 82% 30.12 in 6.2 mi ENE 9.2 mph - N/A   Mostly Cloudy
10:20 AM 53.6 °F - 46.4 °F 77% 30.09 in 6.2 mi ENE 10.4 mph - N/A   Mostly Cloudy
10:50 AM 53.6 °F - 46.4 °F 77% 30.09 in 6.2 mi East 13.8 mph - N/A   Mostly Cloudy
11:20 AM 55.4 °F - 48.2 °F 77% 30.09 in 6.2 mi East 12.7 mph - N/A   Mostly Cloudy
11:50 AM 57.2 °F - 46.4 °F 67% 30.09 in 6.2 mi Variable 5.8 mph - N/A   Mostly Cloudy
12:20 PM 60.8 °F - 44.6 °F 55% 30.06 in 6.2 mi SSW 9.2 mph 20.7 mph N/A   Mostly Cloudy
12:50 PM 60.8 °F - 46.4 °F 59% 30.06 in 6.2 mi SW 9.2 mph - N/A   Mostly Cloudy
1:20 PM 60.8 °F - 41.0 °F 48% 30.06 in 6.2 mi SSW 10.4 mph - N/A   Mostly Cloudy
1:50 PM 62.6 °F - 41.0 °F 45% 30.04 in 6.2 mi South 10.4 mph - N/A   Mostly Cloudy
2:20 PM 64.4 °F - 41.0 °F 42% 30.04 in 6.2 mi South 12.7 mph - N/A   Mostly Cloudy
2:50 PM 62.6 °F - 39.2 °F 42% 30.01 in 6.2 mi South 11.5 mph 24.2 mph N/A   Mostly Cloudy
3:00 PM 63 °F - 41 °F 33%  in 12 mi South 11.5 mph - -   Partly Cloudy
3:20 PM 64.4 °F - 37.4 °F 37% 30.01 in 6.2 mi SSW 13.8 mph - N/A   Mostly Cloudy
3:50 PM 57.2 °F - 44.6 °F 63% 30.04 in 6.2 mi South 15.0 mph 39.1 mph N/A Rain Light Rain Showers
4:20 PM 55.4 °F - 44.6 °F 67% 30.04 in 6.2 mi SSW 11.5 mph - N/A   Mostly Cloudy
4:50 PM 55.4 °F - 42.8 °F 63% 30.01 in 6.2 mi South 4.6 mph - N/A   Mostly Cloudy
5:20 PM 55.4 °F - 44.6 °F 67% 30.01 in 6.2 mi Variable 1.2 mph - N/A   Mostly Cloudy
5:50 PM 55.4 °F - 42.8 °F 63% 30.01 in 6.2 mi Variable 2.3 mph - N/A   Mostly Cloudy
6:20 PM 55.4 °F - 39.2 °F 54% 29.98 in 6.2 mi SE 6.9 mph - N/A   Mostly Cloudy
6:50 PM 53.6 °F - 42.8 °F 67% 29.98 in 6.2 mi East 9.2 mph - N/A   Mostly Cloudy
7:20 PM 55.4 °F - 42.8 °F 63% 29.98 in 6.2 mi East 10.4 mph - N/A   Mostly Cloudy
7:50 PM 55.4 °F - 44.6 °F 67% 29.98 in 6.2 mi East 8.1 mph - N/A   Mostly Cloudy
8:20 PM 53.6 °F - 44.6 °F 72% 29.98 in 6.2 mi East 8.1 mph - N/A   Mostly Cloudy
8:50 PM 55.4 °F - 44.6 °F 67% 29.98 in 6.2 mi East 6.9 mph - N/A Rain , Thunderstorm Light Thunderstorms and Rain
9:00 PM 56 °F - 44 °F 54%  in 12 mi East 6.9 mph - - Rain Heavy Rain
9:20 PM 53.6 °F - 44.6 °F 72% 29.98 in 6.2 mi ESE 6.9 mph - N/A   Mostly Cloudy
9:50 PM 51.8 °F - 46.4 °F 82% 29.98 in 6.2 mi NE 6.9 mph - N/A   Mostly Cloudy
10:20 PM 51.8 °F - 44.6 °F 76% 29.98 in 6.2 mi East 4.6 mph - N/A   Mostly Cloudy
11:20 PM 51.8 °F - 46.4 °F 82% 29.98 in 6.2 mi WSW 12.7 mph - N/A   Mostly Cloudy
11:50 PM 48.2 °F - 44.6 °F 87% 29.98 in 6.2 mi West 10.4 mph - N/A   Mostly Cloudy